Location: Audinghen
(50.8518°N, 1.6129°E)
Time: 17:48:57
(UTC+00:00)

H-2A R/B - Pass Details

Date: 07 August 2020
Orbit: 578 x 654 km, 98.5° (Epoch: 24 September)

Event Time Altitude Azimuth Distance (km) Brightness Sun altitude
Rises 02:09:40 0° 127° (SE) 2,806 5.4 -17.0°
Reaches altitude 10° 02:12:10 10° 113° (ESE) 1,903 4.7 -16.8°
Maximum altitude 02:15:23 23° 61° (ENE) 1,271 4.4 -16.5°
Drops below altitude 10° 02:18:36 10° 10° (N) 1,906 5.6 -16.2°
Sets 02:21:05 0° 355° (N) 2,811 6.3 -16.0°
